User: anonymous   Login
Location: Oshawa
(43.9000°N, 78.8670°W)
Time: 21:10:23
(UTC-04:00)
Language:

Cosmos 2333 Rocket - Orbit

View from above orbital plane
View from above orbital plane
View from above satellite
View from above satellite

Ground track
Ground track

The orbit data is extracted from the following two-line orbital elements,

1 24298U 96051B   15123.82734494 -.00000194  00000-0 -78658-4 0  9993
2 24298 070.8469 256.5709 0018405 256.2872 215.8289 14.12422798962344
Epoch (UTC): 03 May 2015 19:51:22
Eccentricity: 0.0018405
inclination: 70.8469°
perigee height: 838 km
apogee height: 864 km
right ascension of ascending node: 256.5709°
argument of perigee: 256.2872°
revolutions per day: 14.12422798
mean anomaly at epoch: 215.8289°
orbit number at epoch: 96234

The dashed part of the orbit path shows where the satellite is in the earth's shadow,  

DLR